| time (UTC) | temp F | wind direction | speed MPH | gust MPH | rain 1hr in | rain 24hr in | rain mn in | humidity % | barometer mb |
| 20260504045259 | 55 | 0 | 1.0 | 15.0 | 0.00 | 0.01 | 0.00 | 52 | 1007.6 |
| 20260504044257 | 55 | 223 | 2.0 | 15.0 | 0.00 | 0.01 | 0.00 | 51 | 1007.7 |
| 20260504043731 | 55 | 217 | 3.0 | 15.0 | 0.00 | 0.01 | 0.00 | 51 | 1007.6 |
| 20260504042713 | 55 | 246 | 2.0 | 15.0 | 0.00 | 0.01 | 0.00 | 50 | 1007.7 |
| 20260504042443 | 55 | 221 | 2.0 | 16.0 | 0.00 | 0.01 | 0.00 | 51 | 1007.7 |
| 20260504035250 | 55 | 242 | 1.0 | 14.0 | 0.00 | 0.01 | 0.01 | 51 | 1007.5 |
| 20260504034250 | 55 | 227 | 1.0 | 14.0 | 0.00 | 0.01 | 0.01 | 51 | 1007.5 |
| 20260504033250 | 55 | 228 | 1.0 | 12.0 | 0.00 | 0.01 | 0.01 | 52 | 1007.6 |
| 20260504032249 | 55 | 225 | 0.0 | 7.0 | 0.00 | 0.01 | 0.01 | 53 | 1007.7 |
| 20260504031248 | 55 | 242 | 0.0 | 5.0 | 0.00 | 0.01 | 0.01 | 53 | 1007.7 |
| 20260504030248 | 55 | 198 | 1.0 | 10.0 | 0.00 | 0.01 | 0.01 | 53 | 1007.7 |
| 20260504025248 | 54 | 216 | 1.0 | 9.0 | 0.00 | 0.01 | 0.01 | 54 | 1007.8 |
| 20260504024248 | 55 | 220 | 1.0 | 9.0 | 0.00 | 0.01 | 0.01 | 55 | 1007.7 |
| 20260504023248 | 54 | 225 | 1.0 | 10.0 | 0.00 | 0.01 | 0.01 | 56 | 1007.8 |
| 20260504022248 | 54 | 222 | 0.0 | 6.0 | 0.00 | 0.01 | 0.01 | 56 | 1007.9 |
| 20260504021248 | 53 | 223 | 0.0 | 6.0 | 0.00 | 0.01 | 0.01 | 60 | 1008.0 |
| 20260504020248 | 52 | 205 | 0.0 | 0.0 | 0.00 | 0.01 | 0.01 | 67 | 1008.0 |
| 20260504015248 | 52 | 200 | 0.0 | 0.0 | 0.00 | 0.01 | 0.01 | 71 | 1008.1 |
| 20260504014247 | 51 | 199 | 0.0 | 0.0 | 0.00 | 0.01 | 0.01 | 74 | 1008.1 |
| 20260504013248 | 50 | 197 | 0.0 | 0.0 | 0.00 | 0.01 | 0.01 | 78 | 1008.1 |
| 20260504012247 | 50 | 195 | 0.0 | 0.0 | 0.00 | 0.01 | 0.01 | 82 | 1008.1 |
| 20260504011247 | 49 | 225 | 0.0 | 0.0 | 0.00 | 0.01 | 0.01 | 84 | 1008.2 |
| 20260504010246 | 49 | 238 | 0.0 | 0.0 | 0.00 | 0.01 | 0.01 | 85 | 1008.4 |
| 20260504005720 | 49 | 237 | 0.0 | 0.0 | 0.01 | 0.01 | 0.01 | 85 | 1008.6 |
| 20260504004246 | 49 | 237 | 0.0 | 0.0 | 0.01 | 0.01 | 0.01 | 84 | 1008.6 |
| 20260504003244 | 50 | 238 | 0.0 | 0.0 | 0.01 | 0.01 | 0.01 | 83 | 1008.7 |
| 20260504002238 | 50 | 237 | 0.0 | 0.0 | 0.01 | 0.01 | 0.01 | 82 | 1008.7 |
| 20260504001236 | 50 | 241 | 0.0 | 1.0 | 0.01 | 0.01 | 0.01 | 80 | 1009.0 |
| 20260504000235 | 51 | 241 | 0.0 | 0.0 | 0.01 | 0.01 | 0.01 | 78 | 1009.0 |
| 20260503235233 | 51 | 262 | 0.0 | 7.0 | 0.00 | 0.00 | 0.00 | 76 | 1008.8 |
| 20260503234233 | 51 | 0 | 0.0 | 7.0 | 0.00 | 0.00 | 0.00 | 73 | 1008.7 |
| 20260503233231 | 51 | 232 | 2.0 | 12.0 | 0.00 | 0.00 | 0.00 | 72 | 1008.6 |
| 20260503232232 | 53 | 252 | 4.0 | 19.0 | 0.00 | 0.00 | 0.00 | 67 | 1008.8 |
| 20260503231232 | 54 | 248 | 0.0 | 6.0 | 0.00 | 0.00 | 0.00 | 60 | 1008.6 |
| 20260503230231 | 54 | 242 | 2.0 | 13.0 | 0.00 | 0.00 | 0.00 | 56 | 1008.4 |
| 20260503225231 | 55 | 0 | 1.0 | 12.0 | 0.00 | 0.00 | 0.00 | 54 | 1008.3 |
| 20260503224232 | 55 | 258 | 1.0 | 16.0 | 0.00 | 0.00 | 0.00 | 52 | 1008.1 |
| 20260503224151 | 55 | 222 | 4.0 | 19.0 | 0.00 | 0.00 | 0.00 | 51 | 1008.1 |
| 20260503222231 | 55 | 224 | 5.0 | 24.0 | 0.00 | 0.00 | 0.00 | 49 | 1008.0 |
| 20260503221232 | 56 | 228 | 3.0 | 16.0 | 0.00 | 0.00 | 0.00 | 47 | 1008.0 |
| 20260503220231 | 56 | 250 | 3.0 | 14.0 | 0.00 | 0.00 | 0.00 | 46 | 1007.9 |
| 20260503215232 | 56 | 230 | 1.0 | 8.0 | 0.00 | 0.00 | 0.00 | 46 | 1007.9 |
| 20260503214232 | 56 | 211 | 2.0 | 17.0 | 0.00 | 0.00 | 0.00 | 46 | 1007.7 |
| 20260503213232 | 56 | 224 | 0.0 | 10.0 | 0.00 | 0.00 | 0.00 | 50 | 1008.0 |
| 20260503212231 | 56 | 212 | 3.0 | 14.0 | 0.00 | 0.00 | 0.00 | 49 | 1008.4 |
| 20260503211231 | 56 | 246 | 5.0 | 20.0 | 0.00 | 0.00 | 0.00 | 46 | 1008.2 |
| 20260503210231 | 56 | 0 | 2.0 | 16.0 | 0.00 | 0.00 | 0.00 | 44 | 1008.4 |
| 20260503205710 | 57 | 219 | 2.0 | 19.0 | 0.00 | 0.00 | 0.00 | 43 | 1008.1 |
| 20260503204231 | 57 | 233 | 3.0 | 19.0 | 0.00 | 0.00 | 0.00 | 42 | 1008.1 |
| 20260503203231 | 57 | 239 | 3.0 | 16.0 | 0.00 | 0.00 | 0.00 | 42 | 1008.2 |
| 20260503202231 | 57 | 252 | 3.0 | 16.0 | 0.00 | 0.00 | 0.00 | 40 | 1008.4 |
| 20260503201231 | 57 | 238 | 2.0 | 14.0 | 0.00 | 0.00 | 0.00 | 40 | 1008.5 |
| 20260503200231 | 57 | 196 | 5.0 | 20.0 | 0.00 | 0.00 | 0.00 | 38 | 1008.6 |
| 20260503195231 | 58 | 0 | 3.0 | 16.0 | 0.00 | 0.00 | 0.00 | 39 | 1008.8 |
| 20260503194956 | 56 | 0 | 5.0 | 16.0 | 0.00 | 0.00 | 0.00 | 40 | 1009.6 |
| 20260503194854 | 56 | 213 | 4.0 | 19.0 | 0.00 | 0.00 | 0.00 | 38 | 1009.7 |
| 20260503194707 | 57 | 267 | 4.0 | 20.0 | 0.00 | 0.00 | 0.00 | 38 | 1008.9 |
| 20260503194636 | 57 | 234 | 4.0 | 23.0 | 0.00 | 0.00 | 0.00 | 38 | 1009.4 |
| 20260503194625 | 57 | 246 | 3.0 | 16.0 | 0.00 | 0.00 | 0.00 | 38 | 1009.3 |
| 20260503185229 | 56 | 0 | 3.0 | 15.0 | 0.00 | 0.00 | 0.00 | 38 | 1010.0 |
| 20260503184709 | 56 | 261 | 3.0 | 16.0 | 0.00 | 0.00 | 0.00 | 38 | 1010.2 |
| 20260503183229 | 57 | 298 | 2.0 | 12.0 | 0.00 | 0.00 | 0.00 | 40 | 1010.3 |
| 20260503182229 | 56 | 276 | 2.0 | 12.0 | 0.00 | 0.00 | 0.00 | 39 | 1010.3 |
| 20260503182151 | 55 | 242 | 1.0 | 13.0 | 0.00 | 0.00 | 0.00 | 43 | 1010.4 |
| 20260503180229 | 54 | 274 | 0.0 | 4.0 | 0.00 | 0.00 | 0.00 | 50 | 1010.5 |
| 20260503175704 | 54 | 269 | 0.0 | 0.0 | 0.00 | 0.00 | 0.00 | 55 | 1010.6 |
| 20260503174710 | 53 | 11 | 0.0 | 0.0 | 0.00 | 0.00 | 0.00 | 54 | 1010.6 |
| 20260503173230 | 52 | 5 | 0.0 | 0.0 | 0.00 | 0.00 | 0.00 | 56 | 1010.7 |
| 20260503172230 | 51 | 5 | 0.0 | 0.0 | 0.00 | 0.00 | 0.00 | 59 | 1010.9 |
| 20260503171229 | 51 | 10 | 0.0 | 0.0 | 0.00 | 0.00 | 0.00 | 58 | 1011.1 |
| 20260503170230 | 51 | 10 | 0.0 | 0.0 | 0.00 | 0.00 | 0.00 | 60 | 1011.3 |
| 20260503150228 | 51 | 219 | 0.0 | 9.0 | 0.00 | 0.00 | 0.00 | 52 | 1012.1 |
| 20260503140229 | 49 | 249 | 0.0 | 4.0 | 0.00 | 0.00 | 0.00 | 55 | 1012.8 |
| 20260503131229 | 46 | 250 | 1.0 | 8.0 | 0.00 | 0.00 | 0.00 | 57 | 1013.3 |
| 20260503130707 | 46 | 231 | 0.0 | 2.0 | 0.00 | 0.00 | 0.00 | 57 | 1013.3 |
| 20260503110229 | 37 | 230 | 0.0 | 0.0 | 0.00 | 0.00 | 0.00 | 77 | 1013.3 |
| 20260503100229 | 36 | 230 | 0.0 | 0.0 | 0.00 | 0.00 | 0.00 | 80 | 1013.0 |
| 20260503090228 | 37 | 0 | 0.0 | 0.0 | 0.00 | 0.00 | 0.00 | 80 | 1013.0 |
| 20260503081228 | 38 | 228 | 0.0 | 0.0 | 0.00 | 0.00 | 0.00 | 78 | 1013.1 |
| 20260503080229 | 38 | 228 | 0.0 | 0.0 | 0.00 | 0.00 | 0.00 | 78 | 1013.1 |
| 20260503072227 | 38 | 228 | 0.0 | 0.0 | 0.00 | 0.00 | 0.00 | 79 | 1013.1 |
| 20260503071228 | 38 | 229 | 0.0 | 0.0 | 0.00 | 0.00 | 0.00 | 79 | 1013.1 |
| 20260503070228 | 38 | 229 | 0.0 | 0.0 | 0.00 | 0.00 | 0.00 | 78 | 1013.1 |
| 20260503060228 | 40 | 230 | 0.0 | 0.0 | 0.00 | 0.00 | 0.00 | 74 | 1013.4 |
| 20260503054702 | 40 | 229 | 0.0 | 0.0 | 0.00 | 0.00 | 0.00 | 73 | 1013.4 |
| 20260503053228 | 41 | 230 | 0.0 | 0.0 | 0.00 | 0.00 | 0.00 | 73 | 1013.4 |
| 20260503052228 | 41 | 229 | 0.0 | 0.0 | 0.00 | 0.00 | 0.00 | 73 | 1013.6 |
| 20260503051227 | 41 | 229 | 0.0 | 0.0 | 0.00 | 0.00 | 0.00 | 72 | 1013.7 |
| 20260503050226 | 42 | 229 | 0.0 | 0.0 | 0.00 | 0.00 | 0.00 | 71 | 1013.7 |